[[{"header":{"parameterUnit":"m.s-1","parameterCategory":1,"la1":30.2991,"la2":30.254,"lo1":-89.0895,"lo2":-89.0444,"dy":0.0017,"dx":0.0017,"nx":28,"ny":28,"refTime":"2024-04-12T21:00:00:Z","depth":0,"parameterNumber":2,"parameterNumberName":"U-component_of_WINDS"},"data":[0,0,0,0,0,0,0,0,0,0,0,0,0,0,0,0,0,0,0,0,0,0,0,0,0,0,0,0,0,0,0,0,0,0,0,0,0,0,0,0,0,0,0,0,0,0,0,0,0,0,0,0,0,0,0,0,0,0,2.5364,2.5365,0,2.5445,2.5446,2.5447,2.5443,2.5442,2.5441,2.544,2.5524,2.5527,2.553,0,0,0,0,0,0,0,0,0,0,0,0,0,2.521,2.5213,2.5364,2.5365,2.5366,2.5445,2.5446,2.5447,2.5443,2.5442,2.5441,2.5439,2.5523,2.5527,2.5531,0,0,0,0,0,0,0,0,0,0,0,0,0,2.5282,2.5214,2.5364,2.5374,2.5375,2.5445,2.5446,2.5447,2.5444,2.5442,2.544,2.5439,2.5521,2.5526,2.5531,2.5596,0,0,2.5546,2.5548,0,0,0,0,0,0,0,0,2.5278,2.5288,2.5371,2.5373,2.5375,2.5432,2.5422,2.5497,2.5444,2.5418,2.544,2.5438,2.5495,2.5502,2.5521,2.56,2.5604,2.5547,2.555,2.5552,2.5553,0,0,0,0,0,0,0,2.5273,2.5285,2.5396,2.5373,2.5375,2.5375,2.5384,2.5436,2.5465,2.542,2.542,2.5429,2.5496,2.5516,2.5523,2.5605,2.5547,2.5551,2.5554,2.5556,2.5744,2.5746,0,0,0,0,0,0,2.5266,2.528,2.5394,2.5399,2.5322,2.5379,2.5389,2.5416,2.5464,2.547,2.5431,2.5429,2.5508,2.5517,2.5526,2.5607,2.5552,2.5556,2.5559,2.5742,2.5745,2.5747,0,0,0,0,0,0,2.5263,2.5276,2.539,2.534,2.5354,2.5384,2.5414,2.5418,2.5439,2.5473,2.5478,2.5446,2.5507,2.5519,2.5579,2.561,2.5559,2.5563,2.574,2.5743,2.5746,2.5768,0,0,0,0,0,0,2.5258,2.5275,2.5299,2.534,2.5357,2.5442,2.5416,2.5421,2.5447,2.5445,2.5489,2.5494,2.5507,2.5572,2.5584,2.5615,2.5567,2.5737,2.5741,2.5745,2.5765,2.5771,2.5777,0,0,0,0,0,2.5253,2.5302,2.53,2.5314,2.5387,2.5443,2.5453,2.5466,2.5449,2.5475,2.5497,2.5493,2.5604,2.5578,2.5592,2.5625,2.5735,2.574,2.5745,2.5762,2.577,2.5777,0,0,0,0,0,0,2.5263,2.5307,2.5306,2.5369,2.5403,2.5442,2.5474,2.5474,2.5513,2.551,2.5525,2.5535,2.5596,2.5617,2.5587,2.5692,2.5668,2.5675,2.5676,2.5684,2.569,2.5685,2.5571,0,0,0,0,0,2.5273,2.5314,2.535,2.5403,2.542,2.5444,2.5469,2.5477,2.5512,2.5526,2.5552,2.5587,2.5631,2.5658,2.57,2.5768,2.5778,2.5798,2.5804,2.5809,2.5815,2.5855,2.5865,2.5762,2.5762,2.5762,0,0,2.5293,2.5322,2.5347,2.5406,2.5432,2.5476,2.5456,2.5502,2.5535,2.5533,2.5592,2.5613,2.5653,2.5718,2.5748,2.5737,2.5846,2.5815,2.5818,2.5822,2.5861,2.5871,2.5879,2.5765,2.5764,2.5764,0,0,2.5353,2.5378,2.5426,2.5453,2.5494,2.5511,2.5522,2.5563,2.5576,2.5636,2.5636,2.5676,2.5749,2.5778,2.5803,2.5876,2.5875,2.5889,2.5922,2.5961,2.5969,2.5976,2.6004,2.6013,2.5895,2.5896,2.5896,0,2.5373,2.5437,2.5451,2.5498,2.5524,2.5525,2.5575,2.5601,2.5653,2.5672,2.5659,2.5752,2.5779,2.5852,2.587,2.5889,2.5905,2.5884,2.5966,2.5974,2.5981,2.6008,2.6018,2.5897,2.5897,2.5897,2.5897,0,2.5462,2.5506,2.554,2.5591,2.5622,2.5669,2.5691,2.5721,2.5726,2.5745,2.5807,2.5839,2.5888,2.5906,2.5911,2.5981,2.5973,2.5963,2.5939,2.5992,2.6018,2.6028,2.59,2.5899,2.5898,2.5898,0,0,2.5529,2.5588,2.56,2.5624,2.567,2.5706,2.5755,2.5803,2.5828,2.5865,2.5908,2.5971,2.5963,2.599,2.6,2.6033,2.6092,2.602,2.6021,2.6033,2.6172,2.618,2.6192,2.6091,2.6093,2.6094,2.6169,0,2.5595,2.5681,2.5695,2.5771,2.5814,2.5816,2.5859,2.5893,2.5912,2.5952,2.5973,2.6018,2.6003,2.602,2.6053,2.6077,2.612,2.6072,2.6132,2.6134,2.6123,2.6205,2.6213,2.6282,2.6179,2.6181,2.6182,0,2.5682,2.5721,2.5802,2.5844,2.5863,2.5901,2.5947,2.5985,2.6024,2.6035,2.6068,2.6073,2.6126,2.61,2.6173,2.6141,2.6166,2.6182,2.6185,2.6192,2.6162,2.6215,2.6304,2.6315,2.6198,2.6196,2.6195,0,2.5725,2.5798,2.5856,2.5877,2.5927,2.5954,2.5977,2.6014,2.6043,2.6083,2.6103,2.6149,2.6175,2.6211,2.623,2.6209,2.6303,2.6278,2.6316,2.6315,2.6336,2.6334,2.6431,2.635,2.635,2.635,2.635,0,2.5797,2.5847,2.5877,2.5913,2.5969,2.5986,2.6041,2.6063,2.6097,2.6138,2.6143,2.6182,2.6204,2.6246,2.6261,2.6321,2.6333,2.6345,2.6348,2.6345,2.6344,2.6362,2.6358,2.6353,2.6352,2.6352,2.6351,0,2.5855,2.5877,2.5941,2.5984,2.5996,2.6035,2.6073,2.6109,2.6128,2.618,2.6193,2.6224,2.6275,2.6297,2.6359,2.637,2.6439,2.6438,2.6425,2.6427,2.6464,2.6461,2.6577,2.6594,2.6501,2.6502,2.6502,0,2.59,2.5938,2.5986,2.6014,2.6037,2.6081,2.6111,2.613,2.6161,2.6209,2.624,2.629,2.6332,2.6413,2.6442,2.649,2.6491,2.6529,2.6499,2.6495,2.6494,2.6492,2.6497,2.6535,2.6536,2.6536,2.6537,0,2.5978,2.5988,2.603,2.6077,2.6112,2.615,2.6187,2.6209,2.6234,2.6269,2.6321,2.6353,2.6417,2.6468,2.6519,2.6543,2.6545,2.6546,2.6558,2.6555,2.6547,2.6554,2.6442,2.6544,2.6543,2.6543,2.6542,2.6542,2.6032,2.6067,2.6106,2.6154,2.6184,2.6219,2.6255,2.628,2.6323,2.6376,2.6385,2.6441,2.6481,2.6549,2.6576,2.6621,2.6612,2.6628,2.6632,2.6636,2.6639,2.6539,2.663,2.663,2.6629,2.6629,2.6629,0,2.6112,2.6138,2.6181,2.6233,2.6271,2.6269,2.6311,2.6343,2.6392,2.6429,2.647,2.6531,2.6581,2.6614,2.6665,2.6695,2.6698,2.6708,2.6707,2.6713,2.6644,2.6629,2.6705,2.6705,2.6705,2.6705,2.6705,2.6705,2.6158,2.6218,2.6232,2.6308,2.6333,2.6388,2.6412,2.6445,2.6475,2.6543,2.6584,2.6605,2.6642,2.6696,2.6742,2.6751,2.677,2.6781,2.679,2.6725,2.6717,2.671,2.6696,2.6785,2.6785,2.6855,2.6856,2.6856]},{"header":{"parameterUnit":"m.s-1","parameterCategory":1,"la1":30.2991,"la2":30.254,"lo1":-89.0895,"lo2":-89.0444,"dy":0.0017,"dx":0.0017,"nx":28,"ny":28,"refTime":"2024-04-12T21:00:00:Z","depth":0,"parameterNumber":3,"parameterNumberName":"V-component_of_WINDS"},"data":[0,0,0,0,0,0,0,0,0,0,0,0,0,0,0,0,0,0,0,0,0,0,0,0,0,0,0,0,0,0,0,0,0,0,0,0,0,0,0,0,0,0,0,0,0,0,0,0,0,0,0,0,0,0,0,0,0,0,-2.4711,-2.4711,0,-2.4704,-2.4704,-2.4704,-2.4725,-2.4725,-2.4726,-2.4727,-2.4713,-2.4712,-2.4711,0,0,0,0,0,0,0,0,0,0,0,0,0,-2.4738,-2.4737,-2.4711,-2.4711,-2.4711,-2.4704,-2.4704,-2.4704,-2.4724,-2.4725,-2.4726,-2.4727,-2.4713,-2.4712,-2.4711,0,0,0,0,0,0,0,0,0,0,0,0,0,-2.4728,-2.4737,-2.4711,-2.472,-2.4721,-2.4704,-2.4704,-2.4704,-2.4724,-2.4725,-2.4726,-2.4727,-2.4714,-2.4712,-2.4711,-2.4682,0,0,-2.4706,-2.4706,0,0,0,0,0,0,0,0,-2.4728,-2.4727,-2.4719,-2.472,-2.472,-2.4716,-2.4709,-2.4696,-2.4724,-2.4723,-2.4727,-2.4728,-2.4713,-2.4711,-2.4708,-2.4682,-2.4681,-2.4706,-2.4705,-2.4705,-2.4704,0,0,0,0,0,0,0,-2.4729,-2.4727,-2.4708,-2.4719,-2.472,-2.4724,-2.4723,-2.4706,-2.4712,-2.4723,-2.4725,-2.4724,-2.4713,-2.4709,-2.4708,-2.4681,-2.4706,-2.4705,-2.4704,-2.4703,-2.4635,-2.4634,0,0,0,0,0,0,-2.4729,-2.4728,-2.4708,-2.4708,-2.4727,-2.4722,-2.4722,-2.4717,-2.4713,-2.4713,-2.4723,-2.4725,-2.4711,-2.4709,-2.4707,-2.4676,-2.4705,-2.4703,-2.4702,-2.4636,-2.4635,-2.4634,0,0,0,0,0,0,-2.473,-2.4727,-2.4708,-2.4718,-2.4716,-2.4721,-2.4715,-2.4716,-2.4712,-2.4713,-2.4713,-2.4718,-2.4712,-2.4709,-2.469,-2.4676,-2.4703,-2.4701,-2.4637,-2.4636,-2.4634,-2.4612,0,0,0,0,0,0,-2.473,-2.4727,-2.4717,-2.4718,-2.4716,-2.4692,-2.4714,-2.4715,-2.471,-2.4712,-2.4708,-2.4708,-2.4712,-2.4692,-2.4688,-2.4674,-2.47,-2.4638,-2.4636,-2.4635,-2.4614,-2.461,-2.4607,0,0,0,0,0,-2.4731,-2.4709,-2.4716,-2.4714,-2.4703,-2.4691,-2.469,-2.4697,-2.4709,-2.4699,-2.47,-2.4708,-2.4678,-2.469,-2.4686,-2.4671,-2.4639,-2.4637,-2.4635,-2.4616,-2.4611,-2.4607,0,0,0,0,0,0,-2.4702,-2.4709,-2.4717,-2.4695,-2.4693,-2.4695,-2.4681,-2.4691,-2.4683,-2.4685,-2.4693,-2.4692,-2.4671,-2.4669,-2.4682,-2.4646,-2.4661,-2.4658,-2.4648,-2.4643,-2.464,-2.464,-2.4699,0,0,0,0,0,-2.4694,-2.4685,-2.4691,-2.467,-2.4669,-2.4676,-2.467,-2.4677,-2.4674,-2.4672,-2.4672,-2.4667,-2.4657,-2.465,-2.464,-2.4615,-2.4615,-2.4603,-2.46,-2.4597,-2.4594,-2.4583,-2.4578,-2.4627,-2.4627,-2.4627,0,0,-2.4675,-2.4678,-2.4671,-2.4665,-2.4664,-2.4654,-2.4674,-2.4662,-2.4655,-2.467,-2.4653,-2.4652,-2.4648,-2.4626,-2.4616,-2.4624,-2.4581,-2.4594,-2.4591,-2.459,-2.458,-2.4576,-2.4571,-2.4625,-2.4626,-2.4626,0,0,-2.4637,-2.4637,-2.4622,-2.4622,-2.4622,-2.4628,-2.4624,-2.4626,-2.4627,-2.4611,-2.4623,-2.4614,-2.4595,-2.4593,-2.4589,-2.4555,-2.4563,-2.4551,-2.4532,-2.4521,-2.4517,-2.4514,-2.4503,-2.4499,-2.4549,-2.4548,-2.4548,0,-2.4613,-2.46,-2.4612,-2.4601,-2.4598,-2.4616,-2.46,-2.4599,-2.4594,-2.4592,-2.4601,-2.4582,-2.458,-2.4559,-2.4552,-2.4547,-2.4544,-2.4551,-2.4517,-2.4514,-2.4511,-2.4501,-2.4497,-2.4547,-2.4547,-2.4547,-2.4548,0,-2.4572,-2.4563,-2.4551,-2.455,-2.4546,-2.4533,-2.4543,-2.4537,-2.4545,-2.4549,-2.4534,-2.4533,-2.4525,-2.4521,-2.4526,-2.4502,-2.4507,-2.4516,-2.4532,-2.4505,-2.4496,-2.4492,-2.4545,-2.4546,-2.4546,-2.4546,0,0,-2.4511,-2.4522,-2.4517,-2.4519,-2.4522,-2.4515,-2.4503,-2.4499,-2.4495,-2.4492,-2.4483,-2.447,-2.4481,-2.4476,-2.4482,-2.4473,-2.4449,-2.4484,-2.4484,-2.4479,-2.4424,-2.4417,-2.4412,-2.4455,-2.4454,-2.4454,-2.4425,0,-2.4475,-2.4457,-2.447,-2.445,-2.4443,-2.4461,-2.4451,-2.4452,-2.4457,-2.4451,-2.4455,-2.4447,-2.446,-2.4459,-2.445,-2.4454,-2.4438,-2.4456,-2.4446,-2.4446,-2.4447,-2.4407,-2.4399,-2.4372,-2.4421,-2.4421,-2.442,0,-2.4429,-2.4429,-2.4409,-2.4418,-2.4416,-2.4406,-2.4406,-2.44,-2.4402,-2.4406,-2.4404,-2.4414,-2.4403,-2.4419,-2.4405,-2.4417,-2.4414,-2.4415,-2.4414,-2.4413,-2.4431,-2.4406,-2.4363,-2.4359,-2.4414,-2.4415,-2.4415,0,-2.4389,-2.4384,-2.4372,-2.4373,-2.4382,-2.4376,-2.4379,-2.4383,-2.4381,-2.4379,-2.4378,-2.4374,-2.4372,-2.4369,-2.4378,-2.4389,-2.4363,-2.4379,-2.4366,-2.4366,-2.4359,-2.4359,-2.4315,-2.4356,-2.4356,-2.4357,-2.4357,0,-2.4347,-2.4334,-2.4355,-2.4348,-2.4335,-2.435,-2.4337,-2.4342,-2.4345,-2.4339,-2.4354,-2.4348,-2.436,-2.4355,-2.4361,-2.435,-2.4348,-2.4351,-2.4353,-2.435,-2.435,-2.4348,-2.435,-2.4355,-2.4356,-2.4356,-2.4356,0,-2.4299,-2.4312,-2.4302,-2.4314,-2.4316,-2.4306,-2.4316,-2.431,-2.4318,-2.431,-2.4309,-2.432,-2.4315,-2.4325,-2.4319,-2.4324,-2.4309,-2.4313,-2.4309,-2.431,-2.4297,-2.4299,-2.425,-2.4246,-2.4289,-2.4289,-2.4289,0,-2.4271,-2.4263,-2.4275,-2.4274,-2.4278,-2.4275,-2.4274,-2.4289,-2.4288,-2.4293,-2.4286,-2.4284,-2.4282,-2.4274,-2.4281,-2.4278,-2.4283,-2.4267,-2.4282,-2.4281,-2.4284,-2.4285,-2.4285,-2.4263,-2.4262,-2.4262,-2.4261,0,-2.4221,-2.4229,-2.4229,-2.4233,-2.4233,-2.4235,-2.4238,-2.4236,-2.4252,-2.425,-2.4248,-2.4247,-2.4246,-2.4243,-2.4243,-2.4245,-2.4256,-2.4257,-2.4254,-2.4251,-2.4249,-2.4252,-2.43,-2.4258,-2.4258,-2.4258,-2.4258,-2.4259,-2.4183,-2.4178,-2.4187,-2.4187,-2.4193,-2.4197,-2.4193,-2.4202,-2.4201,-2.4203,-2.4212,-2.4208,-2.4213,-2.4215,-2.4217,-2.4214,-2.4221,-2.4216,-2.4215,-2.4214,-2.4213,-2.4251,-2.4214,-2.4214,-2.4214,-2.4214,-2.4214,0,-2.4134,-2.4143,-2.4143,-2.415,-2.4151,-2.4165,-2.4171,-2.417,-2.4167,-2.4173,-2.4173,-2.4171,-2.417,-2.4179,-2.4179,-2.4175,-2.4181,-2.4175,-2.4175,-2.4176,-2.4205,-2.4209,-2.4171,-2.4171,-2.4171,-2.4171,-2.4171,-2.4171,-2.4109,-2.4103,-2.4113,-2.4109,-2.4117,-2.4116,-2.4119,-2.4123,-2.4128,-2.4127,-2.4127,-2.4134,-2.4141,-2.4143,-2.4143,-2.4146,-2.4145,-2.4138,-2.4142,-2.4169,-2.4173,-2.4177,-2.4181,-2.4138,-2.4138,-2.4113,-2.4113,-2.4113]}]]